Date String (YYYY-MM-DD hh:mm:ss) UTC,Instrument flags,Ambient pressure (hPa),Sample flow (lpm),Bypass flow (lpm),Sample temperature (°C),Ambient temperature (°C),ASC tube jacket temperature (°C),LED temperature (°C),Box temperature (°C),Sample RH (%),Span deviation,Mass concentration (μg/m³),Mass concentration (μg/m³),Mass concentration (μg/m³)
DateTimeUTC,F1_M11,P_M11,Q1_M11,Q2_M11,T1_M11,T2_M11,T3_M11,T4_M11,T5_M11,U1_M11,ZSPAN_M11,X2_M11,X0_M11,X1_M11
2021-11-11 14:00:00,,0827.7,5.00,0.00,22.6,21.8,00.0,31.6,24.3,12.9,0000.0,0003.71,0010.10,0003.06
2021-11-11 14:01:00,,0827.7,5.01,0.00,22.6,21.8,00.0,31.6,24.3,13.0,0000.0,0003.68,0008.79,0003.03
2021-11-11 14:02:00,,0827.7,4.99,0.00,22.6,21.8,00.0,31.6,24.3,13.0,0000.0,0003.62,0008.71,0003.01
2021-11-11 14:03:00,,0827.7,5.00,0.00,22.6,21.8,00.0,31.6,24.3,13.1,0000.0,0003.60,0008.71,0002.99
2021-11-11 14:04:00,,0827.7,5.01,0.00,22.6,21.7,00.0,31.6,24.3,13.1,0000.0,0003.62,0008.76,0002.97
2021-11-11 14:05:00,,0827.7,4.99,0.00,22.5,21.7,00.0,31.6,24.3,13.1,0000.0,0003.60,0008.37,0002.96
2021-11-11 14:06:00,,0827.8,5.00,0.00,22.5,21.7,00.0,31.6,24.3,13.1,0000.0,0003.61,0008.46,0002.98
2021-11-11 14:07:00,,0827.8,5.00,0.00,22.5,21.7,00.0,31.6,24.3,13.1,0000.0,0003.59,0008.46,0002.97
2021-11-11 14:08:00,,0827.8,4.99,0.00,22.5,21.7,00.0,31.6,24.3,13.1,0000.0,0003.59,0008.47,0002.95
2021-11-11 14:09:00,,0827.9,5.01,0.00,22.5,21.7,00.0,31.6,24.3,13.1,0000.0,0003.56,0008.39,0002.92
2021-11-11 14:10:00,,0827.9,4.99,0.00,22.5,21.7,00.0,31.6,24.2,13.2,0000.0,0003.53,0008.71,0002.90
2021-11-11 14:11:00,,0827.9,5.01,0.00,22.5,21.7,00.0,31.5,24.2,13.1,0000.0,0003.49,0008.21,0002.90
2021-11-11 14:12:00,,0827.9,5.00,0.00,22.5,21.7,00.0,31.5,24.2,13.1,0000.0,0003.43,0007.97,0002.88
2021-11-11 14:13:00,,0828.0,5.00,0.00,22.5,21.6,00.0,31.5,24.2,13.1,0000.0,0003.43,0007.70,0002.87
2021-11-11 14:14:00,,0828.0,5.00,0.00,22.5,21.6,00.0,31.5,24.2,13.0,0000.0,0003.42,0007.77,0002.85
2021-11-11 14:15:00,,0827.8,5.01,0.00,22.4,21.6,00.0,31.5,24.2,12.8,0000.0,0003.37,0007.76,0002.85
2021-11-11 14:16:00,,0827.7,5.00,0.00,22.5,22.1,00.0,31.5,24.3,12.9,0000.0,0003.36,0008.29,0002.85
2021-11-11 14:17:00,,0827.8,5.02,0.00,22.6,22.9,00.0,31.6,24.5,12.9,0000.0,0003.37,0008.27,0002.82
2021-11-11 14:18:00,,0827.8,4.99,0.00,22.7,23.5,00.0,31.6,24.7,12.9,0000.0,0003.38,0008.45,0002.81
2021-11-11 14:19:00,,0827.9,5.00,0.00,22.8,23.3,00.0,31.6,24.8,12.7,0000.0,0003.39,0008.72,0002.81
2021-11-11 14:20:00,,0827.9,5.00,0.00,22.8,23.0,00.0,31.7,24.8,12.7,0000.0,0003.42,0008.77,0002.83
2021-11-11 14:21:00,,0827.9,5.00,0.00,22.8,22.8,00.0,31.7,24.7,12.8,0000.0,0003.43,0008.15,0002.84
2021-11-11 14:22:00,,0828.0,5.01,0.00,22.8,22.7,00.0,31.7,24.7,12.7,0000.0,0003.44,0007.86,0002.84
2021-11-11 14:23:00,,0828.0,4.99,0.00,22.8,22.6,00.0,31.7,24.7,12.7,0000.0,0003.49,0007.94,0002.85
2021-11-11 14:24:00,,0828.1,4.99,0.00,22.8,22.5,00.0,31.7,24.7,12.8,0000.0,0003.52,0008.00,0002.85
2021-11-11 14:25:00,,0828.1,5.00,0.00,22.8,22.4,00.0,31.7,24.6,12.9,0000.0,0003.52,0008.15,0002.87
2021-11-11 14:26:00,,0828.0,5.01,0.00,22.8,22.3,00.0,31.7,24.6,12.9,0000.0,0003.54,0008.00,0002.89
2021-11-11 14:27:00,,0828.0,5.00,0.00,22.8,22.2,00.0,31.7,24.6,12.8,0000.0,0003.56,0007.43,0002.90
2021-11-11 14:28:00,,0828.0,5.00,0.00,22.8,22.2,00.0,31.8,24.5,12.7,0000.0,0003.56,0007.41,0002.93
2021-11-11 14:29:00,,0828.0,5.00,0.00,22.8,22.1,00.0,31.8,24.6,12.7,0000.0,0003.58,0007.59,0002.95
2021-11-11 14:30:00,,0828.0,5.02,0.00,22.8,22.1,00.0,31.8,24.6,12.7,0000.0,0003.59,0008.38,0002.96
2021-11-11 14:31:00,,0828.0,4.99,0.00,22.8,22.1,00.0,31.8,24.6,12.8,0000.0,0003.57,0008.25,0002.95
2021-11-11 14:32:00,,0828.0,5.01,0.00,22.8,22.1,00.0,31.8,24.6,12.7,0000.0,0003.57,0008.20,0002.94
2021-11-11 14:33:00,,0828.0,4.99,0.00,22.8,22.1,00.0,31.8,24.6,12.8,0000.0,0003.58,0008.28,0002.93
2021-11-11 14:34:00,,0828.1,5.00,0.00,22.8,22.1,00.0,31.8,24.6,12.9,0000.0,0003.56,0008.32,0002.91
2021-11-11 14:35:00,,0828.2,4.99,0.00,22.8,22.1,00.0,31.8,24.6,12.9,0000.0,0003.49,0008.24,0002.89
2021-11-11 14:36:00,,0828.2,5.00,0.00,22.8,22.1,00.0,31.8,24.6,12.9,0000.0,0003.48,0008.06,0002.88
2021-11-11 14:37:00,,0828.2,5.01,0.00,22.8,22.0,00.0,31.8,24.6,12.9,0000.0,0003.44,0007.85,0002.86
2021-11-11 14:38:00,,0828.2,5.00,0.00,22.8,22.0,00.0,31.8,24.6,12.9,0000.0,0003.45,0007.84,0002.84
2021-11-11 14:39:00,,0828.2,4.99,0.00,22.8,22.0,00.0,31.8,24.6,12.9,0000.0,0003.45,0007.80,0002.84
2021-11-11 14:40:00,,0828.2,5.01,0.00,22.8,22.0,00.0,31.8,24.5,12.9,0000.0,0003.43,0007.52,0002.82
2021-11-11 14:41:00,,0828.3,4.99,0.00,22.8,22.0,00.0,31.8,24.5,12.9,0000.0,0003.44,0006.43,0002.81
2021-11-11 14:42:00,,0828.2,5.02,0.00,22.8,22.0,00.0,31.8,24.6,12.9,0000.0,0003.46,0006.55,0002.82
2021-11-11 14:43:00,,0828.2,4.98,0.00,22.8,22.0,00.0,31.8,24.6,12.9,0000.0,0003.46,0006.65,0002.82
2021-11-11 14:44:00,,0828.2,5.01,0.00,22.8,22.0,00.0,31.8,24.6,12.9,0000.0,0003.47,0006.94,0002.83
2021-11-11 14:45:00,,0828.2,4.98,0.00,22.8,22.0,00.0,31.8,24.6,12.9,0000.0,0003.51,0007.86,0002.84
2021-11-11 14:46:00,,0828.2,5.01,0.00,22.8,22.0,00.0,31.8,24.6,12.8,0000.0,0003.56,0008.30,0002.85
2021-11-11 14:47:00,,0828.1,4.99,0.00,22.8,22.0,00.0,31.8,24.7,12.9,0000.0,0003.59,0008.53,0002.86
2021-11-11 14:48:00,,0828.1,5.01,0.00,22.8,22.0,00.0,31.8,24.7,12.9,0000.0,0003.69,0009.24,0002.89
2021-11-11 14:49:00,,0828.1,5.00,0.00,22.8,22.0,00.0,31.8,24.6,12.9,0000.0,0003.76,0009.85,0002.92
2021-11-11 14:50:00,,0828.1,4.99,0.00,22.8,22.0,00.0,31.8,24.6,12.9,0000.0,0003.81,0010.88,0002.92
2021-11-11 14:51:00,,0828.0,5.01,0.00,22.8,22.0,00.0,31.8,24.7,12.9,0000.0,0003.87,0012.02,0002.95
2021-11-11 14:52:00,,0828.1,4.99,0.00,22.8,22.0,00.0,31.8,24.6,12.9,0000.0,0003.92,0012.08,0002.96
2021-11-11 14:53:00,,0828.2,5.01,0.00,22.8,22.0,00.0,31.8,24.6,12.9,0000.0,0003.93,0012.16,0002.96
2021-11-11 14:54:00,,0828.3,4.99,0.00,22.8,22.0,00.0,31.8,24.6,12.9,0000.0,0004.01,0012.66,0002.97
2021-11-11 14:55:00,,0828.3,5.01,0.00,22.8,22.0,00.0,31.8,24.6,12.9,0000.0,0004.06,0012.85,0002.97
2021-11-11 14:56:00,,0828.4,4.99,0.00,22.8,22.0,00.0,31.8,24.6,12.9,0000.0,0004.04,0012.07,0002.99
2021-11-11 14:57:00,,0828.4,5.01,0.00,22.8,22.0,00.0,31.8,24.6,12.8,0000.0,0004.04,0011.77,0002.98
2021-11-11 14:58:00,,0828.4,5.00,0.00,22.8,22.0,00.0,31.8,24.6,12.8,0000.0,0004.07,0011.84,0003.00
2021-11-11 14:59:00,,0828.4,5.01,0.00,22.8,22.0,00.0,31.8,24.6,12.8,0000.0,0004.02,0011.76,0002.99
